Regional Weather Roundup
Issued by NWS Wakefield, VA

Home | Current Version | Previous Version | Text Only | Print | Product List | Glossary On
Versions: 1 2 3 4 5 6 7 8 9 10 11 12 13 14 15 16 17 18 19 20 21 22 23 24 25 26 27 28 29 30 31 32 33 34 35 36 37 38 39 40 41 42 43 44 45 46 47 48 49 50
000
ASUS41 KAKQ 190914
RWRAKQ

REGIONAL WEATHER ROUNDUP
NATIONAL WEATHER SERVICE WAKEFIELD VA
500 AM EDT SUN APR 19 2015

Note: "fair" indicates few or no clouds below 12,000 feet with no
significant weather and/or obstructions to visibility. * = Denotes
station may not report precipitation (e.g., rain,snow,etc.),
thunder or fog.

VAZ042-051-052>054-056-191000-
NORTHERN VIRGINIA

CITY           SKY/WX    TMP DP  RH WIND       PRES   REMARKS
WASH NATIONAL  MOCLDY    65  49  56 NE10      30.08R
DULLES         MOCLDY    61  39  44 NE8       30.07R
FORT BELVOIR   PTCLDY    57  50  78 VRB2      30.07R
QUANTICO       PTCLDY    60  53  77 E5        30.07R
FREDERICKSBRG* PTCLDY    55  55  99 N6        30.04R
STAFFORD*      PTCLDY    56  56 100 NE5       30.09R
WARRENTON      PTCLDY    49  48  96 CALM      30.04S
CULPEPER*      MOCLDY    54  50  87 CALM      30.05S
MANASSAS*      CLEAR     52  48  87 CALM      30.06R
LEESBURG*      PTCLDY    61  41  48 NE6       30.09R
WINCHESTER     PTCLDY    57  34  41 NE3       30.08S
FRONT ROYAL*   FAIR      54  46  76 CALM      30.07R
LURAY*         FAIR      52  50  93 NE6       30.06R
$$

VAZ048-049-060>072-079>083-191000-
CENTRAL AND SOUTH CENTRAL VIRGINIA

CITY           SKY/WX    TMP DP  RH WIND       PRES   REMARKS
RICHMOND       PTCLDY    56  53  90 CALM      30.02R
CHESTERFIELD*  NOT AVBL
PETERSBURG*    FOG       51  50  97 CALM      30.03S VSB 1
HANOVER        CLEAR     52  50  93 CALM      30.04R
TAPPAHANNOCK*  CLEAR     52  49  90 CALM      30.03R FOG
QUINTON*       FAIR      52  52  97 SW3       30.02S
CHARLOTTSVILLE PTCLDY    57  50  77 CALM      30.03S
GORDONSVILLE*  FAIR      49  48  96 CALM      30.03S
ORANGE*        PTCLDY    52  50  93 CALM      30.05R
LOUISA*        PTCLDY    52  48  87 CALM      30.02S
BUMPASS*       FAIR      52  50  92 CALM      30.03S
FARMVILLE*     CLEAR     58  58 100 N5        30.01S
CREWE*         FAIR      55  54  95 CALM      30.01F
FORT PICKETT*  PTSUNNY   56  55  97 CALM      30.02F VSB 1/4
CHASE CITY*    CLOUDY    62  62 100 CALM      30.01S
CLARKSVILLE*   CLOUDY    63  63 100 CALM      30.00S
SOUTH HILL*    CLOUDY    59  59 100 CALM      30.07S
LAWRENCEVILLE* PTSUNNY   58  58 100 CALM      30.01S VSB 1/2
EMPORIA*       FOG       55  55 100 CALM      30.03S VSB 1/4
$$

VAZ088>098-191000-
SOUTHEAST VIRGINIA

CITY           SKY/WX    TMP DP  RH WIND       PRES   REMARKS
NORFOLK        MOCLDY    58  56  93 CALM      30.02R FOG
VIRGINIA BEACH FOG       54  52  93 CALM      30.01R VSB 3/4
NORFOLK NAVAL  MOCLDY    61  56  83 CALM      30.03R FOG
WEST POINT*    MOCLDY    53  51  92 CALM      30.04R VSB 1/2
SALUDA*        CLOUDY    53  51  95 CALM      30.02R
NEWPORT NEWS   FOG       55  52  89 CALM      30.02S VSB 1/4
LANGLEY AFB    FOG       55  54  97 CALM      30.01R VSB<1/4
FORT EUSTIS    PTCLDY    57  57  99 NE1       30.00S FOG
WILLIAMSBURG*  PTCLDY    57  57 100 CALM      30.03R
HR EXEC AP*    FAIR      48  46  93 CALM      30.03S
FRANKLIN*      FOG      N/A N/A N/A CALM      30.02S VSB<1/4
WAKEFIELD      PTCLDY    53  51  93 CALM      30.02S
$$

VAZ020-022-025-037-045-191000-
WEST CENTRAL AND SOUTHWEST VIRGINIA

CITY           SKY/WX    TMP DP  RH WIND       PRES   REMARKS
STAUNTON*      CLEAR     50  47  90 CALM      30.06F
WAYNESBORO*    FAIR      52  48  84 CALM      30.04F
HOT SPRINGS VA CLEAR     56  45  66 E7        30.07F
LYNCHBURG      PTCLDY    56  55  97 CALM      30.03S
DANVILLE       CLOUDY    64  60  87 NE3       29.99F
SOUTH BOSTON*  CLOUDY    61  60  95 CALM      30.00F
MARTINSVILLE   CLOUDY    60  60 100 CALM      30.02S
ROANOKE        PTCLDY    62  53  72 CALM      30.02F
BLACKSBURG     MOCLDY    59  52  78 E3        30.05S
DUBLIN*        CLOUDY    59  57  93 E3        30.02F
MARION*        CLOUDY    59  56  89 CALM      30.02F
HILLSVILLE*    CLOUDY    60  58  96 E6        30.02F
RICHLANDS*     CLOUDY    63  54  72 SE3       29.97S
WISE*          CLOUDY    63  52  67 CALM      29.96F
ABINGDON*      CLOUDY    66  58  73 E9        29.95S
$$

MDZ021>025-VAZ099-100-191000-
SOUTHERN MARYLAND AND THE DELMARVA PENINSULA

CITY           SKY/WX    TMP DP  RH WIND       PRES   REMARKS
PATUXENT RIVER PTCLDY    57  53  86 SE3       30.05S
BAY BRIDGE APT   N/A     61  34  36 E9        30.08R
LEONARDTOWN    PTCLDY    57  52  82 CALM      30.07R
DOVER          PTCLDY    55  44  65 NE8       30.06R
GEORGETOWN     PTCLDY    59  37  44 E12G21    30.09R
EASTON         PTCLDY    62  47  59 E10       30.12R
CAMBRIDGE      NOT AVBL
SALISBURY      PTCLDY    58  50  75 NE15      30.06R
OCEAN CITY     PTCLDY    57  48  72 NE10      30.07R
WALLOPS ISLAND PTCLDY    57  56  96 N6        30.05S FOG
ACCOMACK*      PTCLDY    55  55 100 N6        30.05R FOG
$$

NCZ012>017-030>032-191000-
NORTH CENTRAL AND EASTERN NORTH CAROLINA

CITY           SKY/WX    TMP DP  RH WIND       PRES   REMARKS
ROANOKE RAPIDS FOG       59  59 100 CALM      30.01S VSB 1
RALEIGH        CLOUDY    64  61  90 CALM      30.00R
ELIZABETH CITY PTCLDY    55  55 100 CALM      30.01R
AHOSKIE*         N/A     58  58  98 CALM      30.01S FOG
EDENTON*       PTCLDY    57  56  97 CALM      30.00S FOG
CURRITUCK*     FOG       57  55  94 CALM      30.02R VSB 1
KILL DEVIL HLS FOG       55  55 100 CALM      30.00R VSB 1/2
MANTEO         PTCLDY    58  57  99 CALM      30.01S
CAPE HATTERAS  MOCLDY    59  59 100 NE6       29.99F
TARBORO*       PTSUNNY   62  61  96 CALM      30.01S FOG
GOLDSBORO      CLOUDY    64  63  94 NE3       29.96F
WASHINGTON     FOG       64  64  99 CALM      29.99F VSB 1/2
GREENVILLE     FOG       64  64 100 CALM      30.00F VSB 1/2
NEW BERN       CLOUDY    66  64  93 E3        29.99F
WILMINGTON     CLOUDY    65  61  87 CALM      29.96F
$$

VAZ048-191000-
ELSEWHERE

CITY           SKY/WX    TMP DP  RH WIND       PRES   REMARKS
HARRISBURG PA  MOCLDY    57  25  29 E6        30.12R
BALTIMORE      MOCLDY    60  33  36 NE9       30.08R
ANNAPOLIS      PTCLDY    62  34  35 NE8       30.08R
ANDREWS AFB    PTCLDY    59  50  72 NE3       30.04S HAZE
PHILADELPHIA   MOCLDY    59  25  27 NE9       30.12R
HENDERSON NC   CLOUDY    63  61  94 CALM      30.00F
GREENSBORO     CLOUDY    64  63  96 SE3       29.98F
ROCKY MOUNT    CLOUDY    65  63  93 N5        30.00S
$$

VAZ100-191000-
MARINE

STATION/POSITION TIME  TEMP    WIND        PRES    WAVE   SWELL
                       AIR SEA DIR/SP/G            HT/PER HT/PER
                 (UTC) (F)     (DEG/KT/KT) (MB)    (FT/S) (FT/S)
CAPE MAY NJ      0800   59 54   60/ 11/ 21 1018.2R
LEWES DE         0800   56 50   70/ 15/ 18 1018.1R
15NM E FENWICK I 0850   56 50              1017.7R   3/ 7
OCEAN-CITY-INLET 0800   59 54   30/  5/  7 1017.4F
WACHAPREAGUE VA  0800   55 67   CALM  /  2 1016.3R
THOMAS POINT MD  0900   62 53   50/ 11/ 12 1019.1R
GOOSES REEF MD   0900   61 58   80/ 10/ 14   N/A     0
COVE POINT MD    0800   62      50/  8/ 11 1017.4R
SOLOMONS ISLAND  0800      56                N/A
BISHOPS HEAD MD  0800   61 65   40/  7/ 14 1017.2R
PINEY POINT MD   0806           60/ 10/ 15   N/A
CAMBRIDGE MD     0800   61 60   30/  3/  3 1017.6R
LEWISETTA VA     0800   59 61              1016.1R
RAPPAHANNOCK LGT 0800          190/  3/  3 1016.9R
STINGRAY PT      0900   56 56   CALM  /  2 1017.0R   0
YORK RVR RNG VA  0800   56     130/  2/  2 1015.8R
YORKTOWN VA      0800   58 59     CALM     1016.0R
DOMINION TERM VA 0800   61        CALM     1016.2F
KIPTOPEKE VA     0800      61   CALM  /  1   N/A
CHES BAY BRIDGE  0800   58 56   90/  2/  3 1015.9S
CAPE HENRY VA    0800   56      CALM  /  1 1014.9F
CHESAPEAKE LGHT  0800   53     240/  2/  2 1016.9S
WILLOUBY STN VA  0800   60      50/  2/  3 1016.8F
S CRANEY ISL VA  0800             CALM     1016.2S
CAPE HENRY BUOY  0828      55                N/A     3/ 8   2/13
1ST LANDING BUOY 0900   54     360/  2/  2 1016.1R   1/ 6
OFFSHORE WE BUOY 0811      50                N/A     3/ 8   3/ 8
64NM E OF VA BCH 0850   57 55   10/  6/  8 1015.5S   3/13   3/13
DUCK PIER NC     0800   56 57   30/  7/  8 1015.1S
44056 DUCK FRF   0811      55                N/A     3/13   2/13
OREGON INLET NC  0800   56 62   30/  6/  8 1015.8S
HATTERAS NC      0800   65 66   50/  3/  3 1015.4R
DIAMOND SHLS NC  0850   70 76   20/ 10/ 14 1015.2F   4/13   3/13
CAPE LOOKOUT NC  0900   67     100/  4/  5 1015.4R
$$



USA.gov is the U.S. government's official web portal to all federal, state and local government web resources and services.